Regional Weather Roundup
Issued by NWS Binghamton, NY

Home | Current Version | Previous Version | Text Only | Print | Product List | Glossary On
Versions: 1 2 3 4 5 6 7 8 9 10 11 12 13 14 15 16 17 18 19 20 21 22 23 24 25 26 27
000
ASUS41 KBGM 221210
RWRBGM

REGIONAL WEATHER ROUNDUP
NATIONAL WEATHER SERVICE BINGHAMTON NY
800 AM EDT TUE AUG 22 2017

Note: "fair" indicates few or no clouds below 12,000 feet with no
significant weather and/or obstructions to visibility.

* = Station(s) that does not report precipitation, such as rain,
snow, etc, also no thunder or fog.

NYZ009-015>018-022>025-036-037-044>046-055>057-062-221300
...Central New York...

CITY           SKY/WX    TMP DP  RH WIND       PRES   REMARKS
Binghamton     MOSUNNY   68  67  96 S8        30.01F FOG
Cortland       FAIR      66  66 100 CALM      29.98F
Dansville      MOSUNNY   74  67  78 SE8       29.92F
Elmira         CLOUDY    66  53  63 E3        29.96F
Seneca Falls   SUNNY     75  70  83 S9        29.91S
Ithaca         MOSUNNY   72  69  90 S6        29.98F
Hamilton       MOSUNNY   68  66  94 SE6       29.98F
Hornell        SUNNY     72  66  83 CALM      29.99F
Monticello     LGT RAIN  66  65  96 S3        30.07S VSB 1/4
Oneonta        SUNNY     70 N/A N/A SW6       30.02F
Penn Yan       CLOUDY    73  67  81 S13G20    29.94F
Rome           CLOUDY    69  68  96 SE8       29.93F
Sidney         FOG       63  63 100 CALM      30.01S VSB 1/4
Syracuse       PTSUNNY   75  69  81 S12       29.89F
$$

PAZ038>040-043-044-047-048-072-221300
...Northeast Pennsylvania...

CITY           SKY/WX    TMP DP  RH WIND       PRES   REMARKS
Hazleton         N/A     72  70  94 CALM      30.10F
Scranton       SUNNY     71  69  93 CALM      30.04F FOG
$$
&&
KEY
WCI = Wind Chill Index
VSB = Visibility
HX  = Heat Index
$$




USA.gov is the U.S. government's official web portal to all federal, state and local government web resources and services.